Location: Johnson City
(36.3130°N, 82.3540°W)
Time: 07:43:56
(UTC-04:00)

Envisat - Visible Passes

Search period start: 26 April 2017 00:00
Search period end: 06 May 2017 00:00
Orbit: 764 x 766 km, 98.2° (Epoch: 24 April)

Date Brightness Start Highest point End Pass type
(mag) Time Alt. Az. Time Alt. Az. Time Alt. Az.
26 Apr 3.9 20:51:48 10° SE 20:56:15 31° ENE 21:00:42 10° N visible
26 Apr 4.8 22:31:34 12° SSW 22:35:13 26° W 22:39:26 10° NW visible
27 Apr 3.4 21:54:22 16° S 21:58:22 62° W 22:03:25 10° NNW visible
28 Apr 3.1 21:17:09 12° SSE 21:21:43 57° ENE 21:26:42 10° N visible
28 Apr 5.5 22:58:25 10° WSW 23:01:03 14° W 23:03:43 10° WNW visible
29 Apr 4.2 20:41:11 10° ESE 20:45:16 25° ENE 20:49:21 10° NNE visible
29 Apr 4.4 22:20:08 13° SSW 22:24:05 33° W 22:28:39 10° NNW visible
30 Apr 3.0 21:42:57 14° S 21:47:18 80° WSW 21:52:24 10° NNW visible
01 May 3.4 21:05:55 10° SE 21:10:42 44° ENE 21:15:31 10° N visible
01 May 5.3 22:46:25 10° SW 22:49:53 18° W 22:53:22 10° NW visible
02 May 4.0 22:08:44 13° SSW 22:12:58 43° W 22:17:47 10° NNW visible
03 May 2.9 21:31:32 12° SSE 21:36:14 81° ENE 21:41:20 10° N visible
04 May 3.8 20:55:09 10° SE 20:59:42 35° ENE 21:04:16 10° N visible
04 May 5.0 22:34:43 10° SSW 22:38:44 24° W 22:42:46 10° NW visible
05 May 3.6 21:57:20 12° S 22:01:52 55° W 22:06:52 10° NNW visible
